Time,TemperatureF,DewpointF,PressureIn,WindDirection,WindDirectionDegrees,WindSpeedMPH,WindSpeedGustMPH,Humidity,HourlyPrecipIn,Conditions,Clouds,dailyrainin,SoftwareType,DateUTC
2013-02-13 00:00:00,40.1,38.0,29.74,South,178,0.0,27.0,92,0.05,,,0.01,Wunderground v.1.15,2013-02-13 05:00:00,
2013-02-13 00:03:00,40.1,38.0,29.74,South,178,1.0,27.0,92,0.05,,,0.01,Wunderground v.1.15,2013-02-13 05:03:00,
2013-02-13 00:04:00,40.1,38.2,29.74,South,178,1.0,27.0,93,0.05,,,0.01,Wunderground v.1.15,2013-02-13 05:04:00,
2013-02-13 00:05:00,40.1,38.2,29.74,South,178,1.0,27.0,93,0.05,,,0.01,Wunderground v.1.15,2013-02-13 05:05:00,
2013-02-13 00:10:00,40.1,38.2,29.74,South,178,1.0,1.0,93,0.05,,,0.01,Wunderground v.1.15,2013-02-13 05:10:00,
2013-02-13 00:15:00,40.0,38.4,29.74,South,178,0.0,27.0,94,0.04,,,0.01,Wunderground v.1.15,2013-02-13 05:15:00,
2013-02-13 00:20:00,40.0,38.4,29.74,West,268,2.0,2.0,94,0.00,,,0.01,Wunderground v.1.15,2013-02-13 05:20:00,
2013-02-13 00:26:00,40.0,38.4,29.74,West,268,2.0,27.0,94,0.00,,,0.01,Wunderground v.1.15,2013-02-13 05:26:00,
2013-02-13 00:31:00,39.8,37.9,29.73,West,267,0.0,27.0,93,0.00,,,0.01,Wunderground v.1.15,2013-02-13 05:31:00,
2013-02-13 00:36:00,39.8,38.2,29.73,West,266,0.0,27.0,94,0.00,,,0.01,Wunderground v.1.15,2013-02-13 05:36:00,
2013-02-13 00:41:00,39.8,38.2,29.73,West,266,0.0,27.0,94,0.00,,,0.01,Wunderground v.1.15,2013-02-13 05:41:00,
2013-02-13 00:46:00,39.8,38.5,29.72,West,266,0.0,27.0,95,0.00,,,0.01,Wunderground v.1.15,2013-02-13 05:46:00,
2013-02-13 00:51:00,39.6,38.0,29.72,West,263,1.0,27.0,94,0.00,,,0.01,Wunderground v.1.15,2013-02-13 05:51:00,
2013-02-13 00:56:00,39.7,38.1,29.72,West,263,2.0,27.0,94,0.00,,,0.01,Wunderground v.1.15,2013-02-13 05:56:00,
2013-02-13 01:01:00,39.6,38.0,29.70,West,263,1.0,27.0,94,0.00,,,0.01,Wunderground v.1.15,2013-02-13 06:01:00,
2013-02-13 01:06:00,39.6,37.7,29.70,West,263,0.0,27.0,93,0.00,,,0.01,Wunderground v.1.15,2013-02-13 06:06:00,
2013-02-13 01:11:00,39.7,37.8,29.70,West,263,1.0,27.0,93,0.00,,,0.01,Wunderground v.1.15,2013-02-13 06:11:00,
2013-02-13 01:17:00,39.6,37.5,29.71,West,262,2.0,27.0,92,0.00,,,0.01,Wunderground v.1.15,2013-02-13 06:17:00,
2013-02-13 01:22:00,39.7,38.1,29.71,West,262,1.0,27.0,94,0.00,,,0.01,Wunderground v.1.15,2013-02-13 06:22:00,
2013-02-13 01:27:00,39.7,37.3,29.71,West,262,1.0,27.0,91,0.00,,,0.01,Wunderground v.1.15,2013-02-13 06:27:00,
2013-02-13 01:32:00,39.8,37.9,29.71,West,262,1.0,27.0,93,0.00,,,0.01,Wunderground v.1.15,2013-02-13 06:32:00,
2013-02-13 01:37:00,39.8,37.7,29.71,West,262,0.0,27.0,92,0.00,,,0.01,Wunderground v.1.15,2013-02-13 06:37:00,
2013-02-13 01:42:00,39.8,38.2,29.69,West,262,0.0,27.0,94,0.00,,,0.01,Wunderground v.1.15,2013-02-13 06:42:00,
2013-02-13 01:47:00,39.7,38.4,29.69,West,262,0.0,27.0,95,0.00,,,0.02,Wunderground v.1.15,2013-02-13 06:47:00,
2013-02-13 01:52:00,39.5,38.2,29.69,South,173,1.0,27.0,95,0.00,,,0.02,Wunderground v.1.15,2013-02-13 06:52:00,
2013-02-13 01:57:00,39.5,38.2,29.69,South,173,1.0,27.0,95,0.00,,,0.02,Wunderground v.1.15,2013-02-13 06:57:00,
2013-02-13 02:02:00,39.4,38.1,29.69,South,173,1.0,27.0,95,0.00,,,0.02,Wunderground v.1.15,2013-02-13 07:02:00,
2013-02-13 02:07:00,39.5,37.9,29.69,South,173,1.0,27.0,94,0.00,,,0.02,Wunderground v.1.15,2013-02-13 07:07:00,
2013-02-13 02:13:00,39.4,38.1,29.69,South,173,0.0,27.0,95,0.00,,,0.02,Wunderground v.1.15,2013-02-13 07:13:00,
2013-02-13 02:18:00,39.4,37.5,29.69,South,173,1.0,27.0,93,0.00,,,0.02,Wunderground v.1.15,2013-02-13 07:18:00,
2013-02-13 02:23:00,39.5,37.6,29.69,South,173,2.0,27.0,93,0.00,,,0.02,Wunderground v.1.15,2013-02-13 07:23:00,
2013-02-13 02:28:00,39.5,37.9,29.69,South,173,3.0,27.0,94,0.00,,,0.02,Wunderground v.1.15,2013-02-13 07:28:00,
2013-02-13 02:33:00,39.5,37.9,29.69,SE,144,4.0,7.0,94,0.00,,,0.03,Wunderground v.1.15,2013-02-13 07:33:00,
2013-02-13 02:38:00,39.5,37.6,29.69,SE,141,6.0,27.0,93,0.00,,,0.03,Wunderground v.1.15,2013-02-13 07:38:00,
2013-02-13 02:43:00,39.5,37.6,29.67,SE,137,9.0,27.0,93,0.00,,,0.03,Wunderground v.1.15,2013-02-13 07:43:00,
2013-02-13 02:48:00,39.5,37.4,29.67,SSE,151,11.0,27.0,92,0.00,,,0.03,Wunderground v.1.15,2013-02-13 07:48:00,
2013-02-13 02:53:00,39.7,37.6,29.67,SE,144,14.0,27.0,92,0.00,,,0.03,Wunderground v.1.15,2013-02-13 07:53:00,
2013-02-13 02:59:00,39.9,37.5,29.67,SE,136,15.0,27.0,91,0.00,,,0.03,Wunderground v.1.15,2013-02-13 07:59:00,
2013-02-13 03:04:00,40.0,37.3,29.67,SSE,150,14.0,27.0,90,0.00,,,0.03,Wunderground v.1.15,2013-02-13 08:04:00,
2013-02-13 03:09:00,39.9,37.5,29.67,SE,130,12.0,27.0,91,0.00,,,0.03,Wunderground v.1.15,2013-02-13 08:09:00,
2013-02-13 03:14:00,40.0,37.6,29.66,SE,141,12.0,27.0,91,0.00,,,0.03,Wunderground v.1.15,2013-02-13 08:14:00,
2013-02-13 03:19:00,40.0,37.6,29.66,SE,126,11.0,27.0,91,0.00,,,0.03,Wunderground v.1.15,2013-02-13 08:19:00,
2013-02-13 03:24:00,39.8,37.9,29.66,SE,127,5.0,27.0,93,0.00,,,0.03,Wunderground v.1.15,2013-02-13 08:24:00,
2013-02-13 03:29:00,39.5,37.9,29.66,ESE,119,4.0,27.0,94,0.00,,,0.03,Wunderground v.1.15,2013-02-13 08:29:00,
2013-02-13 03:35:00,39.4,37.5,29.66,ESE,121,5.0,27.0,93,0.00,,,0.03,Wunderground v.1.15,2013-02-13 08:35:00,
2013-02-13 03:40:00,39.4,37.8,29.66,ESE,123,5.0,27.0,94,0.00,,,0.03,Wunderground v.1.15,2013-02-13 08:40:00,
2013-02-13 03:45:00,39.4,37.8,29.64,SE,132,7.0,27.0,94,0.00,,,0.03,Wunderground v.1.15,2013-02-13 08:45:00,
2013-02-13 03:51:00,39.7,37.8,29.64,SE,136,9.0,16.0,93,0.00,,,0.03,Wunderground v.1.15,2013-02-13 08:51:00,
2013-02-13 03:56:00,39.9,37.8,29.64,SSE,161,10.0,27.0,92,0.00,,,0.03,Wunderground v.1.15,2013-02-13 08:56:00,
2013-02-13 04:01:00,39.7,37.8,29.64,SSE,155,12.0,27.0,93,0.00,,,0.03,Wunderground v.1.15,2013-02-13 09:01:00,
2013-02-13 04:06:00,39.5,37.6,29.64,SE,132,11.0,27.0,93,0.16,,,0.05,Wunderground v.1.15,2013-02-13 09:06:00,
2013-02-13 04:11:00,39.5,37.6,29.64,South,174,10.0,27.0,93,0.11,,,0.05,Wunderground v.1.15,2013-02-13 09:11:00,
2013-02-13 04:16:00,39.5,37.9,29.63,ESE,120,9.0,27.0,94,0.06,,,0.05,Wunderground v.1.15,2013-02-13 09:16:00,
2013-02-13 04:21:00,39.5,37.6,29.63,SE,143,7.0,27.0,93,0.04,,,0.05,Wunderground v.1.15,2013-02-13 09:21:00,
2013-02-13 04:26:00,39.5,37.9,29.63,ESE,116,9.0,27.0,94,0.00,,,0.05,Wunderground v.1.15,2013-02-13 09:26:00,
2013-02-13 04:31:00,39.5,37.9,29.64,SE,139,9.0,27.0,94,0.00,,,0.05,Wunderground v.1.15,2013-02-13 09:31:00,
2013-02-13 04:36:00,39.4,37.8,29.64,ESE,111,5.0,27.0,94,0.00,,,0.05,Wunderground v.1.15,2013-02-13 09:36:00,
2013-02-13 04:42:00,39.2,37.9,29.63,ESE,111,2.0,27.0,95,0.00,,,0.05,Wunderground v.1.15,2013-02-13 09:42:00,
2013-02-13 04:47:00,39.1,37.8,29.63,ESE,106,1.0,27.0,95,0.00,,,0.05,Wunderground v.1.15,2013-02-13 09:47:00,
2013-02-13 04:52:00,38.9,37.6,29.63,ESE,117,2.0,27.0,95,0.00,,,0.05,Wunderground v.1.15,2013-02-13 09:52:00,
2013-02-13 04:57:00,38.8,37.5,29.63,ESE,108,3.0,27.0,95,0.00,,,0.05,Wunderground v.1.15,2013-02-13 09:57:00,
2013-02-13 05:02:00,38.8,37.5,29.63,ESE,120,4.0,27.0,95,0.00,,,0.05,Wunderground v.1.15,2013-02-13 10:02:00,
2013-02-13 05:07:00,38.7,37.7,29.63,ESE,109,6.0,27.0,96,0.00,,,0.05,Wunderground v.1.15,2013-02-13 10:07:00,
2013-02-13 05:12:00,38.7,37.7,29.63,ESE,112,5.0,27.0,96,0.00,,,0.05,Wunderground v.1.15,2013-02-13 10:12:00,
2013-02-13 05:18:00,38.6,37.6,29.63,SE,131,4.0,27.0,96,0.00,,,0.05,Wunderground v.1.15,2013-02-13 10:18:00,
2013-02-13 05:24:00,38.6,37.6,29.63,ESE,115,2.0,27.0,96,0.00,,,0.05,Wunderground v.1.15,2013-02-13 10:24:00,
2013-02-13 05:29:00,38.6,37.6,29.61,ESE,115,1.0,27.0,96,0.00,,,0.05,Wunderground v.1.15,2013-02-13 10:29:00,
2013-02-13 05:34:00,38.7,37.7,29.61,SE,140,4.0,27.0,96,0.00,,,0.05,Wunderground v.1.15,2013-02-13 10:34:00,
2013-02-13 05:39:00,38.8,37.8,29.61,ESE,113,7.0,27.0,96,0.00,,,0.05,Wunderground v.1.15,2013-02-13 10:39:00,
2013-02-13 05:44:00,38.8,37.8,29.61,ESE,110,5.0,27.0,96,0.00,,,0.05,Wunderground v.1.15,2013-02-13 10:44:00,
2013-02-13 05:49:00,38.8,37.8,29.61,NE,55,2.0,27.0,96,0.00,,,0.05,Wunderground v.1.15,2013-02-13 10:49:00,
2013-02-13 05:54:00,38.8,37.8,29.61,East,95,2.0,27.0,96,0.00,,,0.05,Wunderground v.1.15,2013-02-13 10:54:00,
2013-02-13 05:59:00,38.8,37.8,29.59,East,101,4.0,27.0,96,0.00,,,0.05,Wunderground v.1.15,2013-02-13 10:59:00,
2013-02-13 06:04:00,38.8,37.8,29.59,ESE,119,6.0,27.0,96,0.00,,,0.05,Wunderground v.1.15,2013-02-13 11:04:00,
2013-02-13 06:09:00,38.8,37.8,29.59,East,94,5.0,27.0,96,0.00,,,0.05,Wunderground v.1.15,2013-02-13 11:09:00,
2013-02-13 06:15:00,38.8,38.0,29.60,East,94,1.0,27.0,97,0.00,,,0.05,Wunderground v.1.15,2013-02-13 11:15:00,
2013-02-13 06:20:00,38.9,38.1,29.60,East,94,1.0,1.0,97,0.00,,,0.05,Wunderground v.1.15,2013-02-13 11:20:00,
2013-02-13 06:25:00,38.8,38.0,29.60,East,94,0.0,27.0,97,0.00,,,0.05,Wunderground v.1.15,2013-02-13 11:25:00,
2013-02-13 06:30:00,38.8,38.0,29.59,East,94,0.0,27.0,97,0.00,,,0.05,Wunderground v.1.15,2013-02-13 11:30:00,
2013-02-13 06:35:00,38.8,38.0,29.59,SE,134,2.0,27.0,97,0.00,,,0.05,Wunderground v.1.15,2013-02-13 11:35:00,
2013-02-13 06:40:00,38.8,38.0,29.59,East,87,3.0,3.0,97,0.00,,,0.05,Wunderground v.1.15,2013-02-13 11:40:00,
2013-02-13 06:45:00,38.8,38.0,29.59,East,91,2.0,27.0,97,0.00,,,0.05,Wunderground v.1.15,2013-02-13 11:45:00,
2013-02-13 06:51:00,38.9,38.1,29.59,ESE,123,3.0,27.0,97,0.00,,,0.05,Wunderground v.1.15,2013-02-13 11:51:00,
2013-02-13 06:56:00,39.0,38.2,29.59,SE,126,6.0,27.0,97,0.00,,,0.05,Wunderground v.1.15,2013-02-13 11:56:00,
2013-02-13 07:01:00,39.1,38.3,29.59,ESE,117,6.0,27.0,97,0.00,,,0.05,Wunderground v.1.15,2013-02-13 12:01:00,
2013-02-13 07:07:00,39.2,38.4,29.59,ESE,117,2.0,27.0,97,0.00,,,0.05,Wunderground v.1.15,2013-02-13 12:07:00,
2013-02-13 07:12:00,39.3,38.5,29.60,NE,55,1.0,27.0,97,0.00,,,0.05,Wunderground v.1.15,2013-02-13 12:12:00,
2013-02-13 07:17:00,39.4,38.6,29.60,ESE,107,2.0,27.0,97,0.00,,,0.05,Wunderground v.1.15,2013-02-13 12:17:00,
2013-02-13 07:22:00,39.9,39.1,29.60,SSE,161,5.0,27.0,97,0.00,,,0.05,Wunderground v.1.15,2013-02-13 12:22:00,
2013-02-13 07:27:00,39.9,39.1,29.60,ENE,63,4.0,27.0,97,0.00,,,0.05,Wunderground v.1.15,2013-02-13 12:27:00,
2013-02-13 07:32:00,39.8,39.0,29.60,NE,43,3.0,27.0,97,0.00,,,0.05,Wunderground v.1.15,2013-02-13 12:32:00,
2013-02-13 07:37:00,39.9,39.1,29.60,NE,43,3.0,27.0,97,0.00,,,0.05,Wunderground v.1.15,2013-02-13 12:37:00,
2013-02-13 07:42:00,40.5,39.7,29.58,South,175,4.0,27.0,97,0.00,,,0.05,Wunderground v.1.15,2013-02-13 12:42:00,
2013-02-13 07:47:00,40.7,39.9,29.58,ESE,123,5.0,27.0,97,0.00,,,0.05,Wunderground v.1.15,2013-02-13 12:47:00,
2013-02-13 07:53:00,40.5,39.7,29.58,SSE,150,2.0,27.0,97,0.00,,,0.05,Wunderground v.1.15,2013-02-13 12:53:00,
2013-02-13 07:59:00,40.3,39.3,29.59,NW,306,2.0,27.0,96,0.00,,,0.05,Wunderground v.1.15,2013-02-13 12:59:00,
2013-02-13 08:04:00,40.6,39.8,29.59,SSE,155,5.0,27.0,97,0.00,,,0.05,Wunderground v.1.15,2013-02-13 13:04:00,
2013-02-13 08:09:00,41.0,40.2,29.59,ESE,120,8.0,27.0,97,0.00,,,0.05,Wunderground v.1.15,2013-02-13 13:09:00,
2013-02-13 08:14:00,41.3,40.5,29.58,ESE,119,11.0,27.0,97,0.00,,,0.05,Wunderground v.1.15,2013-02-13 13:14:00,
2013-02-13 08:19:00,41.3,40.2,29.58,ESE,117,12.0,27.0,96,0.00,,,0.05,Wunderground v.1.15,2013-02-13 13:19:00,
2013-02-13 08:24:00,41.4,40.3,29.58,ESE,115,9.0,27.0,96,0.00,,,0.05,Wunderground v.1.15,2013-02-13 13:24:00,
2013-02-13 08:29:00,41.5,40.4,29.59,North,360,6.0,27.0,96,0.00,,,0.05,Wunderground v.1.15,2013-02-13 13:29:00,
2013-02-13 08:35:00,41.9,40.8,29.59,ESE,123,6.0,27.0,96,0.00,,,0.05,Wunderground v.1.15,2013-02-13 13:35:00,
2013-02-13 08:40:00,42.3,41.0,29.59,East,96,12.0,12.0,95,0.00,,,0.05,Wunderground v.1.15,2013-02-13 13:40:00,
2013-02-13 08:45:00,42.5,41.2,29.59,SE,134,17.0,33.0,95,0.00,,,0.05,Wunderground v.1.15,2013-02-13 13:45:00,
2013-02-13 08:50:00,42.6,41.3,29.59,SE,131,19.0,27.0,95,0.00,,,0.05,Wunderground v.1.15,2013-02-13 13:50:00,
2013-02-13 08:56:00,42.6,41.0,29.59,SSE,154,20.0,28.0,94,0.00,,,0.05,Wunderground v.1.15,2013-02-13 13:56:00,
2013-02-13 09:01:00,42.6,41.3,29.59,ESE,122,19.0,27.0,95,0.00,,,0.05,Wunderground v.1.15,2013-02-13 14:01:00,
2013-02-13 09:06:00,42.5,41.2,29.59,SSE,151,20.0,27.0,95,0.00,,,0.05,Wunderground v.1.15,2013-02-13 14:06:00,
2013-02-13 09:11:00,42.6,41.3,29.59,SE,129,19.0,22.0,95,0.00,,,0.05,Wunderground v.1.15,2013-02-13 14:11:00,
2013-02-13 09:17:00,42.7,41.4,29.59,SSE,154,20.0,31.0,95,0.00,,,0.05,Wunderground v.1.15,2013-02-13 14:17:00,
2013-02-13 09:22:00,43.0,41.7,29.59,SSE,164,20.0,27.0,95,0.00,,,0.05,Wunderground v.1.15,2013-02-13 14:22:00,
2013-02-13 09:27:00,43.4,42.1,29.59,SE,135,16.0,27.0,95,0.00,,,0.05,Wunderground v.1.15,2013-02-13 14:27:00,
2013-02-13 09:32:00,43.4,41.8,29.59,SE,134,16.0,27.0,94,0.00,,,0.05,Wunderground v.1.15,2013-02-13 14:32:00,
2013-02-13 09:37:00,43.3,41.4,29.59,East,82,20.0,34.0,93,0.00,,,0.05,Wunderground v.1.15,2013-02-13 14:37:00,
2013-02-13 09:42:00,43.4,41.8,29.59,SE,128,20.0,27.0,94,0.00,,,0.05,Wunderground v.1.15,2013-02-13 14:42:00,
2013-02-13 09:47:00,43.6,42.0,29.59,ESE,113,17.0,27.0,94,0.00,,,0.05,Wunderground v.1.15,2013-02-13 14:47:00,
2013-02-13 09:52:00,43.8,41.9,29.59,South,170,17.0,27.0,93,0.00,,,0.05,Wunderground v.1.15,2013-02-13 14:52:00,
2013-02-13 09:57:00,43.8,42.2,29.57,SSE,160,19.0,27.0,94,0.00,,,0.05,Wunderground v.1.15,2013-02-13 14:57:00,
2013-02-13 10:02:00,43.8,41.9,29.57,SE,135,18.0,30.0,93,0.00,,,0.05,Wunderground v.1.15,2013-02-13 15:02:00,
2013-02-13 10:08:00,43.9,42.0,29.57,SSE,163,20.0,45.0,93,0.00,,,0.05,Wunderground v.1.15,2013-02-13 15:08:00,
2013-02-13 10:13:00,43.8,41.9,29.57,SSE,153,20.0,31.0,93,0.00,,,0.05,Wunderground v.1.15,2013-02-13 15:13:00,
2013-02-13 10:19:00,43.9,42.0,29.57,SSE,157,20.0,32.0,93,0.00,,,0.05,Wunderground v.1.15,2013-02-13 15:19:00,
2013-02-13 10:24:00,44.0,42.1,29.57,South,170,22.0,40.0,93,0.00,,,0.05,Wunderground v.1.15,2013-02-13 15:24:00,
2013-02-13 10:29:00,44.0,41.8,29.57,SSE,167,22.0,40.0,92,0.00,,,0.05,Wunderground v.1.15,2013-02-13 15:29:00,
2013-02-13 10:34:00,44.3,42.4,29.57,SE,141,19.0,27.0,93,0.00,,,0.05,Wunderground v.1.15,2013-02-13 15:34:00,
2013-02-13 10:39:00,44.3,41.8,29.57,SE,128,19.0,27.0,91,0.00,,,0.05,Wunderground v.1.15,2013-02-13 15:39:00,
2013-02-13 10:44:00,44.1,41.6,29.58,SE,146,20.0,27.0,91,0.00,,,0.05,Wunderground v.1.15,2013-02-13 15:44:00,
2013-02-13 10:50:00,44.0,41.3,29.58,SE,146,20.0,27.0,90,0.00,,,0.05,Wunderground v.1.15,2013-02-13 15:50:00,
2013-02-13 10:55:00,44.3,42.1,29.58,SSE,149,20.0,28.0,92,0.00,,,0.05,Wunderground v.1.15,2013-02-13 15:55:00,
2013-02-13 11:00:00,44.3,41.8,29.57,ESE,111,21.0,27.0,91,0.00,,,0.05,Wunderground v.1.15,2013-02-13 16:00:00,
2013-02-13 11:05:00,44.4,41.7,29.57,SSE,147,23.0,30.0,90,0.00,,,0.05,Wunderground v.1.15,2013-02-13 16:05:00,
2013-02-13 11:10:00,45.1,42.6,29.57,ESE,107,20.0,27.0,91,0.00,,,0.05,Wunderground v.1.15,2013-02-13 16:10:00,
2013-02-13 11:15:00,45.1,42.3,29.57,ESE,119,18.0,31.0,90,0.00,,,0.05,Wunderground v.1.15,2013-02-13 16:15:00,
2013-02-13 11:20:00,45.5,42.7,29.57,ESE,117,18.0,18.0,90,0.00,,,0.05,Wunderground v.1.15,2013-02-13 16:20:00,
2013-02-13 11:25:00,45.3,42.0,29.57,SE,142,20.0,41.0,88,0.00,,,0.05,Wunderground v.1.15,2013-02-13 16:25:00,
2013-02-13 11:30:00,45.2,42.2,29.57,ESE,123,20.0,27.0,89,0.00,,,0.05,Wunderground v.1.15,2013-02-13 16:30:00,
2013-02-13 11:35:00,45.6,42.8,29.57,ESE,103,18.0,27.0,90,0.00,,,0.05,Wunderground v.1.15,2013-02-13 16:35:00,
2013-02-13 11:41:00,46.2,42.8,29.57,SSE,153,19.0,27.0,88,0.00,,,0.05,Wunderground v.1.15,2013-02-13 16:41:00,
2013-02-13 11:46:00,46.5,42.8,29.57,SE,127,21.0,27.0,87,0.00,,,0.05,Wunderground v.1.15,2013-02-13 16:46:00,
2013-02-13 11:51:00,47.0,43.0,29.57,SSE,153,20.0,27.0,86,0.00,,,0.05,Wunderground v.1.15,2013-02-13 16:51:00,
2013-02-13 11:56:00,46.8,42.8,29.57,SE,134,18.0,27.0,86,0.00,,,0.05,Wunderground v.1.15,2013-02-13 16:56:00,
2013-02-13 12:01:00,47.1,43.7,29.56,ESE,120,16.0,27.0,88,0.00,,,0.05,Wunderground v.1.15,2013-02-13 17:01:00,
2013-02-13 12:06:00,46.9,43.2,29.56,ESE,114,16.0,27.0,87,0.00,,,0.05,Wunderground v.1.15,2013-02-13 17:06:00,
2013-02-13 12:11:00,46.3,42.9,29.56,SSE,159,16.0,27.0,88,0.00,,,0.05,Wunderground v.1.15,2013-02-13 17:11:00,
2013-02-13 12:16:00,46.0,42.9,29.55,SE,129,14.0,27.0,89,0.00,,,0.05,Wunderground v.1.15,2013-02-13 17:16:00,
2013-02-13 12:21:00,46.3,43.5,29.55,SE,142,10.0,27.0,90,0.00,,,0.05,Wunderground v.1.15,2013-02-13 17:21:00,
2013-02-13 12:26:00,46.7,43.0,29.55,SSE,167,8.0,27.0,87,0.00,,,0.05,Wunderground v.1.15,2013-02-13 17:26:00,
2013-02-13 12:31:00,46.5,43.1,29.55,SSE,153,13.0,27.0,88,0.00,,,0.05,Wunderground v.1.15,2013-02-13 17:31:00,
2013-02-13 12:37:00,47.0,43.6,29.55,SE,131,13.0,27.0,88,0.00,,,0.05,Wunderground v.1.15,2013-02-13 17:37:00,
2013-02-13 12:42:00,46.8,43.1,29.56,ESE,105,10.0,27.0,87,0.00,,,0.05,Wunderground v.1.15,2013-02-13 17:42:00,
2013-02-13 12:47:00,47.0,43.0,29.56,ESE,113,9.0,27.0,86,0.00,,,0.05,Wunderground v.1.15,2013-02-13 17:47:00,
2013-02-13 12:52:00,48.1,41.6,29.56,SSE,161,10.0,27.0,78,0.00,,,0.05,Wunderground v.1.15,2013-02-13 17:52:00,
2013-02-13 12:57:00,48.5,43.3,29.55,SE,128,11.0,27.0,82,0.00,,,0.05,Wunderground v.1.15,2013-02-13 17:57:00,
2013-02-13 13:02:00,48.8,40.9,29.55,SE,144,11.0,27.0,74,0.00,,,0.05,Wunderground v.1.15,2013-02-13 18:02:00,
2013-02-13 13:07:00,49.0,40.7,29.55,NNE,30,14.0,27.0,73,0.00,,,0.05,Wunderground v.1.15,2013-02-13 18:07:00,
2013-02-13 13:12:00,49.3,39.6,29.54,South,169,13.0,27.0,69,0.00,,,0.05,Wunderground v.1.15,2013-02-13 18:12:00,
2013-02-13 13:17:00,49.2,39.8,29.54,SSE,161,10.0,27.0,70,0.00,,,0.05,Wunderground v.1.15,2013-02-13 18:17:00,
2013-02-13 13:23:00,49.2,39.8,29.54,SE,138,10.0,27.0,70,0.00,,,0.05,Wunderground v.1.15,2013-02-13 18:23:00,
2013-02-13 13:28:00,49.3,39.2,29.54,SE,141,11.0,27.0,68,0.00,,,0.05,Wunderground v.1.15,2013-02-13 18:28:00,
2013-02-13 13:33:00,49.5,40.1,29.54,SE,142,11.0,27.0,70,0.00,,,0.05,Wunderground v.1.15,2013-02-13 18:33:00,
2013-02-13 13:38:00,49.6,39.8,29.54,WNW,302,8.0,27.0,69,0.00,,,0.05,Wunderground v.1.15,2013-02-13 18:38:00,
2013-02-13 13:43:00,49.9,40.1,29.55,SSW,202,6.0,27.0,69,0.00,,,0.05,Wunderground v.1.15,2013-02-13 18:43:00,
2013-02-13 13:48:00,49.9,40.1,29.55,WNW,300,6.0,27.0,69,0.00,,,0.05,Wunderground v.1.15,2013-02-13 18:48:00,
2013-02-13 13:53:00,49.3,39.2,29.55,SW,225,9.0,27.0,68,0.00,,,0.05,Wunderground v.1.15,2013-02-13 18:53:00,
2013-02-13 13:58:00,48.8,39.1,29.55,SE,145,9.0,27.0,69,0.00,,,0.05,Wunderground v.1.15,2013-02-13 18:58:00,
2013-02-13 14:03:00,48.6,40.0,29.55,ESE,123,9.0,27.0,72,0.00,,,0.05,Wunderground v.1.15,2013-02-13 19:03:00,
2013-02-13 14:08:00,48.7,39.0,29.55,SSE,149,8.0,27.0,69,0.00,,,0.05,Wunderground v.1.15,2013-02-13 19:08:00,
2013-02-13 14:13:00,48.8,39.1,29.54,NNW,337,6.0,27.0,69,0.00,,,0.05,Wunderground v.1.15,2013-02-13 19:13:00,
2013-02-13 14:18:00,48.7,38.6,29.54,SSE,157,7.0,27.0,68,0.00,,,0.05,Wunderground v.1.15,2013-02-13 19:18:00,
2013-02-13 14:24:00,48.4,38.7,29.54,NW,307,8.0,27.0,69,0.00,,,0.05,Wunderground v.1.15,2013-02-13 19:24:00,
2013-02-13 14:29:00,48.5,38.4,29.54,South,170,7.0,27.0,68,0.00,,,0.05,Wunderground v.1.15,2013-02-13 19:29:00,
2013-02-13 14:34:00,48.1,38.0,29.54,South,184,10.0,35.0,68,0.00,,,0.05,Wunderground v.1.15,2013-02-13 19:34:00,
2013-02-13 14:39:00,48.5,40.2,29.54,SE,132,8.0,35.0,73,0.00,,,0.05,Wunderground v.1.15,2013-02-13 19:39:00,
2013-02-13 14:44:00,48.9,39.2,29.55,ESE,113,4.0,27.0,69,0.00,,,0.05,Wunderground v.1.15,2013-02-13 19:44:00,
2013-02-13 14:49:00,48.9,40.6,29.55,WNW,296,5.0,27.0,73,0.00,,,0.05,Wunderground v.1.15,2013-02-13 19:49:00,
2013-02-13 14:54:00,48.8,39.8,29.55,NE,36,5.0,27.0,71,0.00,,,0.05,Wunderground v.1.15,2013-02-13 19:54:00,
2013-02-13 14:59:00,48.9,39.9,29.54,SSE,147,4.0,27.0,71,0.00,,,0.05,Wunderground v.1.15,2013-02-13 19:59:00,
2013-02-13 15:04:00,49.1,41.2,29.54,NE,56,5.0,27.0,74,0.00,,,0.05,Wunderground v.1.15,2013-02-13 20:04:00,
2013-02-13 15:09:00,48.8,39.4,29.54,SSE,163,8.0,27.0,70,0.00,,,0.05,Wunderground v.1.15,2013-02-13 20:09:00,
2013-02-13 15:15:00,48.1,38.8,29.54,SW,224,12.0,27.0,70,0.00,,,0.05,Wunderground v.1.15,2013-02-13 20:15:00,
2013-02-13 15:20:00,47.8,39.2,29.54,SSE,159,12.0,27.0,72,0.00,,,0.05,Wunderground v.1.15,2013-02-13 20:20:00,
2013-02-13 15:25:00,47.7,38.8,29.54,West,273,11.0,27.0,71,0.00,,,0.05,Wunderground v.1.15,2013-02-13 20:25:00,
2013-02-13 15:30:00,47.6,39.7,29.54,ESE,119,10.0,27.0,74,0.00,,,0.05,Wunderground v.1.15,2013-02-13 20:30:00,
2013-02-13 15:35:00,47.2,39.3,29.54,WNW,302,11.0,27.0,74,0.00,,,0.05,Wunderground v.1.15,2013-02-13 20:35:00,
2013-02-13 15:40:00,47.2,40.4,29.54,SE,136,11.0,11.0,77,0.00,,,0.05,Wunderground v.1.15,2013-02-13 20:40:00,
2013-02-13 15:45:00,47.6,40.4,29.56,ENE,71,8.0,27.0,76,0.00,,,0.05,Wunderground v.1.15,2013-02-13 20:45:00,
2013-02-13 15:50:00,48.4,39.4,29.56,ESE,117,7.0,27.0,71,0.00,,,0.05,Wunderground v.1.15,2013-02-13 20:50:00,
2013-02-13 15:55:00,48.7,39.7,29.56,ESE,120,6.0,27.0,71,0.00,,,0.05,Wunderground v.1.15,2013-02-13 20:55:00,
2013-02-13 16:00:00,49.2,39.1,29.57,SE,130,5.0,27.0,68,0.00,,,0.05,Wunderground v.1.15,2013-02-13 21:00:00,
2013-02-13 16:06:00,48.3,37.8,29.57,ESE,116,7.0,27.0,67,0.00,,,0.05,Wunderground v.1.15,2013-02-13 21:06:00,
2013-02-13 16:11:00,47.7,37.3,29.57,NE,40,7.0,30.0,67,0.00,,,0.05,Wunderground v.1.15,2013-02-13 21:11:00,
2013-02-13 16:16:00,47.6,38.3,29.57,SE,144,7.0,30.0,70,0.00,,,0.05,Wunderground v.1.15,2013-02-13 21:16:00,
2013-02-13 16:21:00,47.4,38.1,29.57,NW,321,8.0,27.0,70,0.00,,,0.05,Wunderground v.1.15,2013-02-13 21:21:00,
2013-02-13 16:26:00,47.3,39.1,29.57,NNW,345,8.0,27.0,73,0.00,,,0.05,Wunderground v.1.15,2013-02-13 21:26:00,
2013-02-13 16:31:00,47.6,39.4,29.58,NNW,338,4.0,27.0,73,0.00,,,0.05,Wunderground v.1.15,2013-02-13 21:31:00,
2013-02-13 16:36:00,47.0,38.8,29.58,NNW,330,5.0,27.0,73,0.00,,,0.05,Wunderground v.1.15,2013-02-13 21:36:00,
2013-02-13 16:41:00,46.8,38.9,29.58,West,272,6.0,27.0,74,0.00,,,0.05,Wunderground v.1.15,2013-02-13 21:41:00,
2013-02-13 16:46:00,46.5,38.0,29.58,NNW,343,5.0,27.0,72,0.00,,,0.05,Wunderground v.1.15,2013-02-13 21:46:00,
2013-02-13 16:51:00,45.9,37.7,29.58,WNW,292,8.0,27.0,73,0.00,,,0.05,Wunderground v.1.15,2013-02-13 21:51:00,
2013-02-13 16:56:00,45.2,37.4,29.58,NW,322,11.0,27.0,74,0.00,,,0.05,Wunderground v.1.15,2013-02-13 21:56:00,
2013-02-13 17:02:00,45.0,37.6,29.58,SSW,200,11.0,27.0,75,0.00,,,0.05,Wunderground v.1.15,2013-02-13 22:02:00,
2013-02-13 17:07:00,44.9,37.1,29.58,WNW,288,12.0,27.0,74,0.00,,,0.05,Wunderground v.1.15,2013-02-13 22:07:00,
2013-02-13 17:12:00,44.8,37.4,29.59,NW,313,13.0,27.0,75,0.00,,,0.05,Wunderground v.1.15,2013-02-13 22:12:00,
2013-02-13 17:17:00,44.6,37.2,29.59,NW,324,13.0,27.0,75,0.00,,,0.05,Wunderground v.1.15,2013-02-13 22:17:00,
2013-02-13 17:22:00,44.2,36.8,29.59,NW,304,10.0,27.0,75,0.00,,,0.05,Wunderground v.1.15,2013-02-13 22:22:00,
2013-02-13 17:27:00,43.9,37.5,29.61,NNW,342,10.0,27.0,78,0.00,,,0.05,Wunderground v.1.15,2013-02-13 22:27:00,
2013-02-13 17:32:00,43.5,37.4,29.61,NNW,338,10.0,27.0,79,0.00,,,0.05,Wunderground v.1.15,2013-02-13 22:32:00,
2013-02-13 17:37:00,43.2,37.8,29.61,NW,317,9.0,27.0,81,0.00,,,0.05,Wunderground v.1.15,2013-02-13 22:37:00,
2013-02-13 17:42:00,42.9,37.5,29.62,NNW,337,9.0,27.0,81,0.00,,,0.05,Wunderground v.1.15,2013-02-13 22:42:00,
2013-02-13 17:47:00,42.6,37.2,29.62,NNW,327,7.0,27.0,81,0.00,,,0.05,Wunderground v.1.15,2013-02-13 22:47:00,
2013-02-13 17:53:00,42.4,37.0,29.62,NW,326,6.0,27.0,81,0.00,,,0.05,Wunderground v.1.15,2013-02-13 22:53:00,
2013-02-13 17:58:00,42.2,36.8,29.64,NNW,328,9.0,27.0,81,0.00,,,0.05,Wunderground v.1.15,2013-02-13 22:58:00,
2013-02-13 18:03:00,42.0,36.9,29.64,NNW,346,7.0,27.0,82,0.00,,,0.05,Wunderground v.1.15,2013-02-13 23:03:00,
2013-02-13 18:08:00,41.7,36.0,29.64,East,101,6.0,27.0,80,0.00,,,0.05,Wunderground v.1.15,2013-02-13 23:08:00,
2013-02-13 18:13:00,41.5,35.5,29.65,NE,46,5.0,27.0,79,0.00,,,0.05,Wunderground v.1.15,2013-02-13 23:13:00,
2013-02-13 18:18:00,41.5,35.5,29.65,NNW,342,6.0,27.0,79,0.00,,,0.05,Wunderground v.1.15,2013-02-13 23:18:00,
2013-02-13 18:23:00,41.3,34.6,29.65,WNW,291,12.0,27.0,77,0.00,,,0.05,Wunderground v.1.15,2013-02-13 23:23:00,
2013-02-13 18:28:00,41.2,34.2,29.65,NW,322,15.0,27.0,76,0.00,,,0.05,Wunderground v.1.15,2013-02-13 23:28:00,
2013-02-13 18:34:00,41.0,34.0,29.65,NW,304,13.0,27.0,76,0.00,,,0.05,Wunderground v.1.15,2013-02-13 23:34:00,
2013-02-13 18:40:00,40.7,33.7,29.65,WNW,282,12.0,27.0,76,0.00,,,0.05,Wunderground v.1.15,2013-02-13 23:40:00,
2013-02-13 18:45:00,40.5,33.2,29.66,NNE,22,12.0,27.0,75,0.00,,,0.05,Wunderground v.1.15,2013-02-13 23:45:00,
2013-02-13 18:50:00,40.3,33.0,29.66,NW,315,14.0,27.0,75,0.00,,,0.05,Wunderground v.1.15,2013-02-13 23:50:00,
2013-02-13 18:55:00,40.1,32.8,29.66,WNW,292,21.0,36.0,75,0.00,,,0.05,Wunderground v.1.15,2013-02-13 23:55:00,
2013-02-13 19:00:00,40.0,33.0,29.67,NW,308,25.0,25.0,76,0.00,,,0.05,Wunderground v.1.15,2013-02-14 00:00:00,
2013-02-13 19:06:00,39.9,32.9,29.67,NW,310,20.0,27.0,76,0.00,,,0.05,Wunderground v.1.15,2013-02-14 00:06:00,
2013-02-13 19:11:00,39.7,33.1,29.67,NW,306,16.0,27.0,77,0.00,,,0.05,Wunderground v.1.15,2013-02-14 00:11:00,
2013-02-13 19:16:00,39.4,33.4,29.68,NNW,340,15.0,27.0,79,0.00,,,0.05,Wunderground v.1.15,2013-02-14 00:16:00,
2013-02-13 19:22:00,38.9,33.6,29.68,WNW,300,15.0,27.0,81,0.00,,,0.05,Wunderground v.1.15,2013-02-14 00:22:00,
2013-02-13 19:27:00,38.6,33.6,29.68,NW,309,14.0,27.0,82,0.00,,,0.05,Wunderground v.1.15,2013-02-14 00:27:00,
2013-02-13 19:32:00,38.3,33.3,29.68,NW,305,14.0,27.0,82,0.00,,,0.05,Wunderground v.1.15,2013-02-14 00:32:00,
2013-02-13 19:37:00,38.0,33.3,29.68,WNW,300,14.0,27.0,83,0.00,,,0.05,Wunderground v.1.15,2013-02-14 00:37:00,
2013-02-13 19:42:00,37.8,32.8,29.69,WNW,282,15.0,27.0,82,0.00,,,0.05,Wunderground v.1.15,2013-02-14 00:42:00,
2013-02-13 19:48:00,37.6,32.6,29.69,WNW,302,17.0,27.0,82,0.00,,,0.05,Wunderground v.1.15,2013-02-14 00:48:00,
2013-02-13 19:53:00,37.5,32.2,29.69,NW,313,19.0,27.0,81,0.00,,,0.05,Wunderground v.1.15,2013-02-14 00:53:00,
2013-02-13 19:58:00,37.4,32.1,29.70,NW,319,21.0,32.0,81,0.00,,,0.05,Wunderground v.1.15,2013-02-14 00:58:00,
2013-02-13 20:03:00,37.3,32.0,29.70,NW,309,21.0,27.0,81,0.00,,,0.05,Wunderground v.1.15,2013-02-14 01:03:00,
2013-02-13 20:08:00,37.1,32.1,29.70,WNW,296,19.0,27.0,82,0.00,,,0.05,Wunderground v.1.15,2013-02-14 01:08:00,
2013-02-13 20:13:00,36.9,31.6,29.70,WNW,292,15.0,27.0,81,0.00,,,0.05,Wunderground v.1.15,2013-02-14 01:13:00,
2013-02-13 20:18:00,36.9,31.6,29.70,NW,311,11.0,27.0,81,0.00,,,0.05,Wunderground v.1.15,2013-02-14 01:18:00,
2013-02-13 20:24:00,36.8,31.5,29.70,WNW,290,8.0,27.0,81,0.00,,,0.05,Wunderground v.1.15,2013-02-14 01:24:00,
2013-02-13 20:29:00,36.8,30.9,29.71,West,273,11.0,27.0,79,0.00,,,0.05,Wunderground v.1.15,2013-02-14 01:29:00,
2013-02-13 20:34:00,36.9,31.0,29.71,WSW,245,11.0,27.0,79,0.00,,,0.05,Wunderground v.1.15,2013-02-14 01:34:00,
2013-02-13 20:39:00,36.9,31.0,29.71,NW,321,12.0,27.0,79,0.00,,,0.05,Wunderground v.1.15,2013-02-14 01:39:00,
2013-02-13 20:44:00,36.9,31.0,29.72,WNW,294,13.0,27.0,79,0.00,,,0.05,Wunderground v.1.15,2013-02-14 01:44:00,
2013-02-13 20:49:00,36.7,31.1,29.72,NW,315,14.0,27.0,80,0.00,,,0.05,Wunderground v.1.15,2013-02-14 01:49:00,
2013-02-13 20:54:00,36.5,30.9,29.72,NW,318,16.0,27.0,80,0.00,,,0.05,Wunderground v.1.15,2013-02-14 01:54:00,
2013-02-13 20:59:00,36.3,31.0,29.72,NW,317,18.0,32.0,81,0.00,,,0.05,Wunderground v.1.15,2013-02-14 01:59:00,
2013-02-13 21:04:00,36.2,30.9,29.72,West,268,15.0,27.0,81,0.00,,,0.05,Wunderground v.1.15,2013-02-14 02:04:00,
2013-02-13 21:09:00,36.1,30.8,29.72,NW,309,10.0,27.0,81,0.00,,,0.05,Wunderground v.1.15,2013-02-14 02:09:00,
2013-02-13 21:14:00,35.9,30.6,29.72,NW,326,7.0,27.0,81,0.00,,,0.05,Wunderground v.1.15,2013-02-14 02:14:00,
2013-02-13 21:19:00,35.8,30.8,29.72,North,355,6.0,27.0,82,0.00,,,0.05,Wunderground v.1.15,2013-02-14 02:19:00,
2013-02-13 21:24:00,35.7,30.7,29.72,NW,325,8.0,27.0,82,0.00,,,0.05,Wunderground v.1.15,2013-02-14 02:24:00,
2013-02-13 21:29:00,35.5,30.8,29.73,WNW,300,11.0,27.0,83,0.00,,,0.05,Wunderground v.1.15,2013-02-14 02:29:00,
2013-02-13 21:34:00,35.3,30.9,29.73,NW,319,13.0,27.0,84,0.00,,,0.05,Wunderground v.1.15,2013-02-14 02:34:00,
2013-02-13 21:39:00,35.2,30.9,29.73,NNW,335,15.0,27.0,84,0.00,,,0.05,Wunderground v.1.15,2013-02-14 02:39:00,
2013-02-13 21:44:00,35.2,30.9,29.74,NW,307,15.0,27.0,84,0.00,,,0.05,Wunderground v.1.15,2013-02-14 02:44:00,
2013-02-13 21:50:00,35.0,30.9,29.74,NW,304,14.0,27.0,85,0.00,,,0.05,Wunderground v.1.15,2013-02-14 02:50:00,
2013-02-13 21:55:00,34.9,30.8,29.74,NW,309,14.0,27.0,85,0.00,,,0.05,Wunderground v.1.15,2013-02-14 02:55:00,
2013-02-13 22:01:00,34.9,30.6,29.74,NW,321,16.0,21.0,84,0.00,,,0.05,Wunderground v.1.15,2013-02-14 03:01:00,
2013-02-13 22:06:00,34.8,30.8,29.74,WNW,290,18.0,27.0,85,0.00,,,0.05,Wunderground v.1.15,2013-02-14 03:06:00,
2013-02-13 22:11:00,34.7,30.7,29.74,WNW,302,20.0,27.0,85,0.00,,,0.05,Wunderground v.1.15,2013-02-14 03:11:00,
2013-02-13 22:16:00,34.6,30.6,29.74,NNW,330,20.0,27.0,85,0.00,,,0.05,Wunderground v.1.15,2013-02-14 03:16:00,
2013-02-13 22:21:00,34.5,30.7,29.74,NW,304,18.0,27.0,86,0.00,,,0.05,Wunderground v.1.15,2013-02-14 03:21:00,
2013-02-13 22:26:00,34.4,30.6,29.74,NW,309,17.0,27.0,86,0.00,,,0.05,Wunderground v.1.15,2013-02-14 03:26:00,
2013-02-13 22:31:00,34.3,30.5,29.74,NW,317,18.0,27.0,86,0.00,,,0.05,Wunderground v.1.15,2013-02-14 03:31:00,
2013-02-13 22:36:00,34.2,30.4,29.74,WNW,300,18.0,27.0,86,0.00,,,0.05,Wunderground v.1.15,2013-02-14 03:36:00,
2013-02-13 22:41:00,34.1,30.6,29.74,NW,310,15.0,27.0,87,0.00,,,0.05,Wunderground v.1.15,2013-02-14 03:41:00,
2013-02-13 22:46:00,34.0,30.5,29.75,WNW,294,15.0,27.0,87,0.00,,,0.05,Wunderground v.1.15,2013-02-14 03:46:00,
2013-02-13 22:52:00,33.9,30.4,29.75,WNW,300,15.0,27.0,87,0.00,,,0.05,Wunderground v.1.15,2013-02-14 03:52:00,
2013-02-13 22:57:00,33.8,30.3,29.75,WNW,294,14.0,27.0,87,0.00,,,0.05,Wunderground v.1.15,2013-02-14 03:57:00,
2013-02-13 23:02:00,33.7,30.2,29.75,NW,312,11.0,27.0,87,0.00,,,0.05,Wunderground v.1.15,2013-02-14 04:02:00,
2013-02-13 23:07:00,33.6,30.1,29.75,WNW,286,9.0,27.0,87,0.00,,,0.05,Wunderground v.1.15,2013-02-14 04:07:00,
2013-02-13 23:12:00,33.5,30.0,29.75,NNW,342,6.0,27.0,87,0.00,,,0.05,Wunderground v.1.15,2013-02-14 04:12:00,
2013-02-13 23:17:00,33.4,29.9,29.75,NW,326,5.0,27.0,87,0.00,,,0.05,Wunderground v.1.15,2013-02-14 04:17:00,
2013-02-13 23:22:00,33.2,29.8,29.75,NW,306,9.0,27.0,87,0.00,,,0.05,Wunderground v.1.15,2013-02-14 04:22:00,
2013-02-13 23:27:00,33.1,29.9,29.76,NW,321,11.0,27.0,88,0.00,,,0.05,Wunderground v.1.15,2013-02-14 04:27:00,
2013-02-13 23:33:00,33.0,29.8,29.76,WNW,299,14.0,27.0,88,0.00,,,0.05,Wunderground v.1.15,2013-02-14 04:33:00,
2013-02-13 23:38:00,33.0,29.8,29.76,NW,311,15.0,27.0,88,0.00,,,0.05,Wunderground v.1.15,2013-02-14 04:38:00,
2013-02-13 23:43:00,33.0,29.8,29.76,NW,310,16.0,27.0,88,0.00,,,0.05,Wunderground v.1.15,2013-02-14 04:43:00,
2013-02-13 23:48:00,32.9,29.7,29.76,WNW,302,16.0,27.0,88,0.00,,,0.05,Wunderground v.1.15,2013-02-14 04:48:00,
2013-02-13 23:53:00,32.9,29.7,29.76,NW,307,13.0,27.0,88,0.00,,,0.05,Wunderground v.1.15,2013-02-14 04:53:00,
2013-02-13 23:58:00,32.9,29.7,29.77,WNW,286,12.0,27.0,88,0.00,,,0.00,Wunderground v.1.15,2013-02-14 04:58:00,